Preview of NWS' New Version of Forecast
This preview is not operational and should not be used for support decisions.

Regional Weather Roundup (RWR)

Issued by Gray - Portland, ME (GYX)

                            
000
ASUS41 KGYX 220610
RWRGYX
WEATHER ROUNDUP FOR MAINE AND NEW HAMPSHIRE
NATIONAL WEATHER SERVICE GRAY ME
200 AM EDT FRI MAR 22 2019

MEZ002-005-006-010-012-015-018-020-021-024-026-027-029-220700-
MAINE
  
CITY           SKY/WX    TMP DP  RH WIND       PRES   REMARKS
PORTLAND       MOCLDY    38  35  89 NE10      29.84F                  
6HR MIN TEMP:  37; 6HR MAX TEMP:  40;                                

SANFORD        CLOUDY    36  34  92 NE8       29.82F                  
BAR HARBOR     FAIR      35  30  82 E7        29.92F                  
WISCASSET      FAIR      36  33  89 VRB7      29.88F                  
6HR MIN TEMP:  36; 6HR MAX TEMP:  38;                                

ROCKLAND       FAIR      36  32  85 E8        29.89F                  
FRYEBURG       CLOUDY    35  32  88 NE5       29.85F                  
6HR MIN TEMP:  35; 6HR MAX TEMP:  40;                                

LEWISTONAUBURN CLOUDY    35  32  88 CALM      29.86F                  
AUGUSTA        MOCLDY    34  32  92 VRB6      29.88F                  
6HR MIN TEMP:  34; 6HR MAX TEMP:  38;                                

WATERVILLE     FAIR      34  30  85 CALM      29.87F                  
BANGOR         CLOUDY    34  31  88 E6        29.91F                  
6HR MIN TEMP:  32; 6HR MAX TEMP:  38;                                

GREENVILLE       N/A     31  25  78 SE6       29.82F                  
6HR MIN TEMP:  30; 6HR MAX TEMP:  36; 6HR PCP:  0.01;                

MILLINOCKET    CLOUDY    34  26  72 CALM      29.92F                  
6HR MIN TEMP:  34; 6HR MAX TEMP:  40;                                

HOULTON        CLOUDY    33  27  78 S6        29.91F                  
6HR MIN TEMP:  33; 6HR MAX TEMP:  40;                                

PRESQUE ISLE   CLOUDY    36  21  54 S10       29.91F                  
6HR MIN TEMP:  36; 6HR MAX TEMP:  41;                                

FRENCHVILLE    FLURRIES  36  23  59 S13G21    29.85F                  
6HR MIN TEMP:  36; 6HR MAX TEMP:  41; 6HR PCP: TRACE;                

CARIBOU        CLOUDY    37  20  50 S9G17     29.89F                  
6HR MIN TEMP:  37; 6HR MAX TEMP:  42;                                

$$

NHZ002-005-008-009-011-012-014-220700-
NEW HAMPSHIRE
  
CITY           SKY/WX    TMP DP  RH WIND       PRES   REMARKS
PORTSMOUTH     CLOUDY    38  34  84 E9        29.80F                  
ROCHESTER      CLOUDY    36  34  92 NE5       29.80F                  
6HR MIN TEMP:  36; 6HR MAX TEMP:  39;                                

NASHUA         LGT RAIN  39  37  92 NE6       29.78F                  
MANCHESTER     CLOUDY    39  33  79 E9        29.78F                  
6HR MIN TEMP:  39; 6HR MAX TEMP:  44;                                

CONCORD        CLOUDY    37  34  89 NE5       29.79F                  
6HR MIN TEMP:  36; 6HR MAX TEMP:  42;                                

LACONIA        CLOUDY    35  32  88 NE8       29.80F                  
PLYMOUTH       CLOUDY    36  32  84 CALM      29.80F                  
BERLIN         CLOUDY    35  30  82 S14       29.79F                  
6HR MIN TEMP:  35; 6HR MAX TEMP:  39;                                

WHITEFIELD     NOT AVBL                                               
JAFFREY        LGT RAIN  35  35 100 N3        29.73F                  
6HR MIN TEMP:  35; 6HR MAX TEMP:  40; 6HR PCP:  0.01;                

LEBANON        CLOUDY    39  29  67 CALM      29.75F                  
6HR MIN TEMP:  36; 6HR MAX TEMP:  40; 6HR PCP: TRACE;                

MT WASHINGTON  CLOUDY    21  16  79 SE39G48     N/A  WCI   1          
6HR MIN TEMP:  21; 6HR MAX TEMP:  26; 6HR PCP:  0.02;                

$$

VTZ005-007-008-220700-
VERMONT
  
CITY           SKY/WX    TMP DP  RH WIND       PRES   REMARKS
ST JOHNSBURY     N/A     34  34 100 MISG      29.75F                  
MONTPELIER     CLOUDY    34  32  92 S9        29.77F                  
BURLINGTON     MOCLDY    36  34  92 CALM      29.74F                  
$$

MAZ007-012-024-CTZ003-RIZ002-NYZ038-NYZ072-220700-
SOUTHERN NEW ENGLAND AND NY
  
CITY           SKY/WX    TMP DP  RH WIND       PRES   REMARKS
BOSTON         LGT RAIN  41  37  86 NE20      29.73F                  
WORCESTER      RAIN      35  34  96 NE9G17    29.69F FOG              
NANTUCKET      MOCLDY    43  40  89 E18G29    29.61F                  
PROVIDENCE     LGT RAIN  41  39  93 NE8       29.67F                  
HARTFORD       RAIN      41  38  89 N13       29.64F FOG              
ALBANY         LGT RAIN  38  34  85 N6        29.67F                  
NEW YORK CITY  HVY RAIN  42  39  89 NE29G40   29.46F FOG              
$$

ANZ081-ANZ082-ANZ150-NHZ014-MEZ023>029-220700-
COASTAL MARINE OBSERVATIONS
  
STATION/POSITION TIME  TEMP    WIND        PRES    WAVE
                       AIR SEA DIR/SP/G            HT/PER
                 (UTC) (F)     (DEG/KT/KT) (MB)    (FT/S)
MOUNT DESERT ROC 0600   36      80/ 16/ 17 1012.2F
MATINICUS ROCK   0500   37     110/ 19/ 20 1012.4F
ISLE OF SHOALS   0500   39      70/ 18/ 20 1009.2F
JEFFREYS LEDGE   0508      39                N/A     4/ 6
CASHES LEDGE BUO 0550   38 40              1009.2F   4/ 5
$$

.............KEY..............
   WCI - WIND CHILL
   TC  - TEMPERATURE IN CELSIUS
   VSB - VISIBILITY IN MILES
   HX  - HEAT INDEX
   FAIR- INDICATES FEW OR NO CLOUDS BELOW 12,000 FT, WITH NO 
         SIGNIFICANT WEATHER AND/OR OBSTRUCTIONS TO VISIBILITY.